Year,Month,Day,Hour,Minute,Value (Times are PST for temperature in C)
2008,09,01,00,00,11.70
2008,09,01,00,01,11.70
2008,09,01,00,02,11.70
2008,09,01,00,03,11.70
2008,09,01,00,04,11.70
2008,09,01,00,05,11.70
2008,09,01,00,06,11.70
2008,09,01,00,07,11.70
2008,09,01,00,08,11.70
2008,09,01,00,09,11.60
2008,09,01,00,10,11.60
2008,09,01,00,11,11.60
2008,09,01,00,12,11.60
2008,09,01,00,13,11.60
2008,09,01,00,14,11.60
2008,09,01,00,15,11.60
2008,09,01,00,16,11.60
2008,09,01,00,17,11.60
2008,09,01,00,18,11.60
2008,09,01,00,19,11.60
2008,09,01,00,20,11.60
2008,09,01,00,21,11.50
2008,09,01,00,22,11.50
2008,09,01,00,23,11.50
2008,09,01,00,24,11.50
2008,09,01,00,25,11.50
2008,09,01,00,26,11.40
2008,09,01,00,27,11.40
2008,09,01,00,28,11.40
2008,09,01,00,29,11.40
2008,09,01,00,30,11.40
2008,09,01,00,31,11.40
2008,09,01,00,32,11.40
2008,09,01,00,33,11.40
2008,09,01,00,34,11.30
2008,09,01,00,35,11.30
2008,09,01,00,36,11.30
2008,09,01,00,37,11.30
2008,09,01,00,38,11.20
2008,09,01,00,39,11.20
2008,09,01,00,40,11.20
2008,09,01,00,41,11.20
2008,09,01,00,42,11.20
2008,09,01,00,43,11.10
2008,09,01,00,44,11.10
2008,09,01,00,45,11.10
2008,09,01,00,46,11.10
2008,09,01,00,47,11.10
2008,09,01,00,48,11.00
2008,09,01,00,49,11.00
2008,09,01,00,50,10.90
2008,09,01,00,51,10.90
2008,09,01,00,52,10.90
2008,09,01,00,53,10.80
2008,09,01,00,54,10.80
2008,09,01,00,55,10.80
2008,09,01,00,56,10.80
2008,09,01,00,57,10.70
2008,09,01,00,58,10.70
2008,09,01,00,59,10.70
2008,09,01,01,00,10.60
2008,09,01,01,01,10.60
2008,09,01,01,02,10.60
2008,09,01,01,03,10.60
2008,09,01,01,04,10.50
2008,09,01,01,05,10.50
2008,09,01,01,06,10.50
2008,09,01,01,07,10.50
2008,09,01,01,08,10.40
2008,09,01,01,09,10.40
2008,09,01,01,10,10.40
2008,09,01,01,11,10.30
2008,09,01,01,12,10.30
2008,09,01,01,13,10.30
2008,09,01,01,14,10.30
2008,09,01,01,15,10.30
2008,09,01,01,16,10.30
2008,09,01,01,17,10.30
2008,09,01,01,18,10.20
2008,09,01,01,19,10.20
2008,09,01,01,20,10.20
2008,09,01,01,21,10.20
2008,09,01,01,22,10.20
2008,09,01,01,23,10.20
2008,09,01,01,24,10.10
2008,09,01,01,25,10.10
2008,09,01,01,26,10.10
2008,09,01,01,27,10.00
2008,09,01,01,28,10.00
2008,09,01,01,29,10.00
2008,09,01,01,30,9.90
2008,09,01,01,31,9.90
2008,09,01,01,32,9.90
2008,09,01,01,33,9.90
2008,09,01,01,34,9.90
2008,09,01,01,35,9.90
2008,09,01,01,36,9.80
2008,09,01,01,37,9.80
2008,09,01,01,38,9.80
2008,09,01,01,39,9.80
2008,09,01,01,40,9.80
2008,09,01,01,41,9.80
2008,09,01,01,42,9.80
2008,09,01,01,43,9.80
2008,09,01,01,44,9.80
2008,09,01,01,45,9.80
2008,09,01,01,46,9.80
2008,09,01,01,47,9.80
2008,09,01,01,48,9.80
2008,09,01,01,49,9.80
2008,09,01,01,50,9.80
2008,09,01,01,51,9.80
2008,09,01,01,52,9.80
2008,09,01,01,53,9.70
2008,09,01,01,54,9.70
2008,09,01,01,55,9.70
2008,09,01,01,56,9.70
2008,09,01,01,57,9.70
2008,09,01,01,58,9.70
2008,09,01,01,59,9.70
2008,09,01,02,00,9.70
2008,09,01,02,01,9.60
2008,09,01,02,02,9.60
2008,09,01,02,03,9.60
2008,09,01,02,04,9.60
2008,09,01,02,05,9.60
2008,09,01,02,06,9.60
2008,09,01,02,07,9.50
2008,09,01,02,08,9.50
2008,09,01,02,09,9.50
2008,09,01,02,10,9.50
2008,09,01,02,11,9.40
2008,09,01,02,12,9.40
2008,09,01,02,13,9.40
2008,09,01,02,14,9.30
2008,09,01,02,15,9.30
2008,09,01,02,16,9.30
2008,09,01,02,17,9.30
2008,09,01,02,18,9.30
2008,09,01,02,19,9.30
2008,09,01,02,20,9.30
2008,09,01,02,21,9.20
2008,09,01,02,22,9.20
2008,09,01,02,23,9.20
2008,09,01,02,24,9.20
2008,09,01,02,25,9.20
2008,09,01,02,26,9.20
2008,09,01,02,27,9.20
2008,09,01,02,28,9.20
2008,09,01,02,29,9.20
2008,09,01,02,30,9.20
2008,09,01,02,31,9.20
2008,09,01,02,32,9.20
2008,09,01,02,33,9.20
2008,09,01,02,34,9.20
2008,09,01,02,35,9.20
2008,09,01,02,36,9.30
2008,09,01,02,37,9.30
2008,09,01,02,38,9.30
2008,09,01,02,39,9.30
2008,09,01,02,40,9.30
2008,09,01,02,41,9.30
2008,09,01,02,42,9.30
2008,09,01,02,43,9.30
2008,09,01,02,44,9.30
2008,09,01,02,45,9.30
2008,09,01,02,46,9.30
2008,09,01,02,47,9.30
2008,09,01,02,48,9.30
2008,09,01,02,49,9.30
2008,09,01,02,50,9.20
2008,09,01,02,51,9.20
2008,09,01,02,52,9.20
2008,09,01,02,53,9.20
2008,09,01,02,54,9.20
2008,09,01,02,55,9.20
2008,09,01,02,56,9.20
2008,09,01,02,57,9.20
2008,09,01,02,58,9.20
2008,09,01,02,59,9.10
2008,09,01,03,00,9.10
2008,09,01,03,01,9.10
2008,09,01,03,02,9.10
2008,09,01,03,03,9.10
2008,09,01,03,04,9.00
2008,09,01,03,05,9.00
2008,09,01,03,06,9.00
2008,09,01,03,07,9.00
2008,09,01,03,08,9.00
2008,09,01,03,09,9.00
2008,09,01,03,10,9.00
2008,09,01,03,11,8.90
2008,09,01,03,12,8.90
2008,09,01,03,13,8.90
2008,09,01,03,14,8.90
2008,09,01,03,15,8.90
2008,09,01,03,16,8.90
2008,09,01,03,17,8.90
2008,09,01,03,18,8.90
2008,09,01,03,19,8.90
2008,09,01,03,20,8.90
2008,09,01,03,21,8.90
2008,09,01,03,22,8.90
2008,09,01,03,23,8.90
2008,09,01,03,24,8.90
2008,09,01,03,25,8.90
2008,09,01,03,26,8.90
2008,09,01,03,27,8.90
2008,09,01,03,28,8.90
2008,09,01,03,29,8.80
2008,09,01,03,30,8.80
2008,09,01,03,31,8.80
2008,09,01,03,32,8.80
2008,09,01,03,33,8.80
2008,09,01,03,34,8.80
2008,09,01,03,35,8.80
2008,09,01,03,36,8.80
2008,09,01,03,37,8.70
2008,09,01,03,38,8.70
2008,09,01,03,39,8.70
2008,09,01,03,40,8.70
2008,09,01,03,41,8.70
2008,09,01,03,42,8.70
2008,09,01,03,43,8.70
2008,09,01,03,44,8.70
2008,09,01,03,45,8.70
2008,09,01,03,46,8.70
2008,09,01,03,47,8.70
2008,09,01,03,48,8.70
2008,09,01,03,49,8.70
2008,09,01,03,50,8.70
2008,09,01,03,51,8.70
2008,09,01,03,52,8.70
2008,09,01,03,53,8.70
2008,09,01,03,54,8.70
2008,09,01,03,55,8.70
2008,09,01,03,56,8.70
2008,09,01,03,57,8.70
2008,09,01,03,58,8.70
2008,09,01,03,59,8.60
2008,09,01,04,00,8.60
2008,09,01,04,01,8.60
2008,09,01,04,02,8.60
2008,09,01,04,03,8.60
2008,09,01,04,04,8.60
2008,09,01,04,29,8.40
2008,09,01,04,51,8.20
2008,09,01,05,09,8.20
2008,09,01,05,27,8.10
2008,09,01,05,41,7.90
2008,09,01,05,54,7.80
2008,09,01,06,06,7.70
2008,09,01,06,20,7.80
2008,09,01,06,40,7.60
2008,09,01,06,54,7.70
2008,09,01,07,10,7.70
2008,09,01,07,28,8.40
2008,09,01,07,43,9.10
2008,09,01,07,54,9.40
2008,09,01,08,07,9.90
2008,09,01,08,20,10.40
2008,09,01,08,34,10.70
2008,09,01,08,47,10.90
2008,09,01,09,01,11.00
2008,09,01,09,14,11.70
2008,09,01,09,27,11.70
2008,09,01,09,41,12.30
2008,09,01,09,51,12.40
2008,09,01,10,04,13.10
2008,09,01,10,18,12.10
2008,09,01,10,19,12.00
2008,09,01,10,20,12.10
2008,09,01,10,21,12.00
2008,09,01,10,22,12.00
2008,09,01,10,23,11.90
2008,09,01,10,24,11.90
2008,09,01,10,25,11.80
2008,09,01,10,26,11.70
2008,09,01,10,27,11.70
2008,09,01,10,28,11.70
2008,09,01,10,29,11.70
2008,09,01,10,30,11.70
2008,09,01,10,31,11.70
2008,09,01,10,32,11.70
2008,09,01,10,33,11.70
2008,09,01,10,34,11.70
2008,09,01,10,35,11.80
2008,09,01,10,36,11.80
2008,09,01,10,37,11.80
2008,09,01,10,38,11.70
2008,09,01,10,39,11.70
2008,09,01,10,40,11.70
2008,09,01,10,41,11.70
2008,09,01,10,42,11.70
2008,09,01,10,43,11.70
2008,09,01,10,44,11.70
2008,09,01,10,45,11.80
2008,09,01,10,46,11.90
2008,09,01,10,47,12.00
2008,09,01,10,48,12.00
2008,09,01,10,49,12.00
2008,09,01,10,50,12.00
2008,09,01,10,51,11.90
2008,09,01,10,52,11.90
2008,09,01,10,53,11.90
2008,09,01,10,54,11.90
2008,09,01,10,55,11.90
2008,09,01,10,56,11.90
2008,09,01,10,57,11.90
2008,09,01,10,58,12.00
2008,09,01,10,59,12.00
2008,09,01,11,00,12.00
2008,09,01,11,01,12.00
2008,09,01,11,02,11.90
2008,09,01,11,03,12.00
2008,09,01,11,04,12.00
2008,09,01,11,05,11.90
2008,09,01,11,06,11.90
2008,09,01,11,07,11.90
2008,09,01,11,08,11.90
2008,09,01,11,09,11.80
2008,09,01,11,10,11.70
2008,09,01,11,11,11.60
2008,09,01,11,12,11.60
2008,09,01,11,13,11.60
2008,09,01,11,14,11.60
2008,09,01,11,15,11.70
2008,09,01,11,16,11.60
2008,09,01,11,17,11.70
2008,09,01,11,18,11.70
2008,09,01,11,19,11.70
2008,09,01,11,20,11.60
2008,09,01,11,21,11.60
2008,09,01,11,22,11.60
2008,09,01,11,23,11.60
2008,09,01,11,24,11.50
2008,09,01,11,25,11.40
2008,09,01,11,26,11.40
2008,09,01,11,27,11.50
2008,09,01,11,28,11.50
2008,09,01,11,29,11.50
2008,09,01,11,30,11.40
2008,09,01,11,31,11.40
2008,09,01,11,32,11.40
2008,09,01,11,33,11.30
2008,09,01,11,34,11.30
2008,09,01,11,35,11.40
2008,09,01,11,36,11.40
2008,09,01,11,37,11.40
2008,09,01,11,38,11.40
2008,09,01,11,39,11.30
2008,09,01,11,40,11.30
2008,09,01,11,41,11.30
2008,09,01,11,42,11.20
2008,09,01,11,43,11.20
2008,09,01,11,44,11.20
2008,09,01,11,45,11.20
2008,09,01,11,46,11.20
2008,09,01,11,47,11.20
2008,09,01,11,48,11.20
2008,09,01,11,49,11.20
2008,09,01,11,50,11.10
2008,09,01,11,51,11.10
2008,09,01,11,52,11.20
2008,09,01,11,53,11.20
2008,09,01,11,54,11.30
2008,09,01,11,55,11.40
2008,09,01,11,56,11.50
2008,09,01,11,57,11.60
2008,09,01,11,58,11.60
2008,09,01,11,59,11.50
2008,09,01,12,00,11.50
2008,09,01,12,01,11.50
2008,09,01,12,02,11.40
2008,09,01,12,03,11.40
2008,09,01,12,04,11.40
2008,09,01,12,05,11.30
2008,09,01,12,06,11.40
2008,09,01,12,07,11.40
2008,09,01,12,08,11.40
2008,09,01,12,09,11.40
2008,09,01,12,10,11.50
2008,09,01,12,11,11.60
2008,09,01,12,12,11.60
2008,09,01,12,13,11.60
2008,09,01,12,14,11.60
2008,09,01,12,15,11.60
2008,09,01,12,16,11.60
2008,09,01,12,17,11.60
2008,09,01,12,18,11.50
2008,09,01,12,19,11.40
2008,09,01,12,20,11.40
2008,09,01,12,21,11.40
2008,09,01,12,22,11.40
2008,09,01,12,23,11.50
2008,09,01,12,24,11.50
2008,09,01,12,25,11.50
2008,09,01,12,26,11.60
2008,09,01,12,27,11.60
2008,09,01,12,28,11.60
2008,09,01,12,29,11.60
2008,09,01,12,30,11.60
2008,09,01,12,31,11.60
2008,09,01,12,32,11.70
2008,09,01,12,33,11.70
2008,09,01,12,34,11.60
2008,09,01,12,35,11.60
2008,09,01,12,36,11.60
2008,09,01,12,37,11.50
2008,09,01,12,38,11.60
2008,09,01,12,39,11.50
2008,09,01,12,40,11.60
2008,09,01,12,41,11.60
2008,09,01,12,42,11.70
2008,09,01,12,43,11.70
2008,09,01,12,44,11.70
2008,09,01,12,45,11.60
2008,09,01,12,46,11.60
2008,09,01,12,47,11.60
2008,09,01,12,48,11.60
2008,09,01,12,49,11.60
2008,09,01,12,50,11.60
2008,09,01,12,51,11.60
2008,09,01,12,52,11.60
2008,09,01,12,53,11.60
2008,09,01,12,54,11.60
2008,09,01,12,55,11.60
2008,09,01,12,56,11.70
2008,09,01,12,57,11.70
2008,09,01,12,58,11.70
2008,09,01,12,59,11.70
2008,09,01,13,00,11.70
2008,09,01,13,01,11.70
2008,09,01,13,02,11.70
2008,09,01,13,03,11.70
2008,09,01,13,04,11.70
2008,09,01,13,05,11.70
2008,09,01,13,06,11.70
2008,09,01,13,07,11.70
2008,09,01,13,08,11.80
2008,09,01,13,09,11.90
2008,09,01,13,10,12.00
2008,09,01,13,11,12.10
2008,09,01,13,12,12.00
2008,09,01,13,13,12.00
2008,09,01,13,14,11.90
2008,09,01,13,15,12.00
2008,09,01,13,16,12.00
2008,09,01,13,17,12.00
2008,09,01,13,18,11.90
2008,09,01,13,19,11.90
2008,09,01,13,20,11.80
2008,09,01,13,21,11.80
2008,09,01,13,22,11.80
2008,09,01,13,23,11.70
2008,09,01,13,24,11.70
2008,09,01,13,25,11.70
2008,09,01,13,26,11.70
2008,09,01,13,27,11.70
2008,09,01,13,28,11.70
2008,09,01,13,29,11.70
2008,09,01,13,30,11.60
2008,09,01,13,31,11.60
2008,09,01,13,32,11.60
2008,09,01,13,33,11.60
2008,09,01,13,34,11.60
2008,09,01,13,35,11.60
2008,09,01,13,36,11.60
2008,09,01,13,37,11.70
2008,09,01,13,38,11.70
2008,09,01,13,39,11.60
2008,09,01,13,40,11.60
2008,09,01,13,41,11.60
2008,09,01,13,42,11.60
2008,09,01,13,43,11.60
2008,09,01,13,44,11.60
2008,09,01,13,45,11.70
2008,09,01,13,46,11.80
2008,09,01,13,47,11.80
2008,09,01,13,48,11.80
2008,09,01,13,49,11.80
2008,09,01,13,50,11.80
2008,09,01,13,51,11.80
2008,09,01,13,52,11.70
2008,09,01,13,53,11.70
2008,09,01,13,54,11.70
2008,09,01,13,55,11.80
2008,09,01,13,56,11.80
2008,09,01,13,57,11.90
2008,09,01,13,58,12.00
2008,09,01,13,59,12.10
2008,09,01,14,00,12.10
2008,09,01,14,01,12.30
2008,09,01,14,02,12.30
2008,09,01,14,03,12.30
2008,09,01,14,04,12.30
2008,09,01,14,05,12.40
2008,09,01,14,06,12.30
2008,09,01,14,07,12.30
2008,09,01,14,08,12.30
2008,09,01,14,09,12.30
2008,09,01,14,10,12.30
2008,09,01,14,11,12.20
2008,09,01,14,12,12.30
2008,09,01,14,13,12.30
2008,09,01,14,14,12.30
2008,09,01,14,15,12.30
2008,09,01,14,16,12.40
2008,09,01,14,17,12.40
2008,09,01,14,18,12.50
2008,09,01,14,19,12.60
2008,09,01,14,20,12.70
2008,09,01,14,21,12.80
2008,09,01,14,22,12.90
2008,09,01,14,23,12.90
2008,09,01,14,24,12.90
2008,09,01,14,25,13.00
2008,09,01,14,26,12.90
2008,09,01,14,27,13.00
2008,09,01,14,28,12.90
2008,09,01,14,29,12.90
2008,09,01,14,30,12.90
2008,09,01,14,31,12.90
2008,09,01,14,32,12.90
2008,09,01,14,33,12.90
2008,09,01,14,34,12.80
2008,09,01,14,35,12.70
2008,09,01,14,36,12.70
2008,09,01,14,37,12.60
2008,09,01,14,38,12.60
2008,09,01,14,39,12.50
2008,09,01,14,40,12.50
2008,09,01,14,41,12.60
2008,09,01,14,42,12.60
2008,09,01,14,43,12.50
2008,09,01,14,44,12.50
2008,09,01,14,45,12.40
2008,09,01,14,46,12.40
2008,09,01,14,47,12.40
2008,09,01,14,48,12.50
2008,09,01,14,49,12.50
2008,09,01,14,50,12.50
2008,09,01,14,51,12.40
2008,09,01,14,52,12.40
2008,09,01,14,53,12.40
2008,09,01,14,54,12.40
2008,09,01,14,55,12.40
2008,09,01,14,56,12.50
2008,09,01,14,57,12.50
2008,09,01,14,58,12.60
2008,09,01,14,59,12.60
2008,09,01,15,00,12.70
2008,09,01,15,01,12.70
2008,09,01,15,02,12.70
2008,09,01,15,03,12.70
2008,09,01,15,04,12.70
2008,09,01,15,05,12.70
2008,09,01,15,06,12.70
2008,09,01,15,07,12.70
2008,09,01,15,08,12.70
2008,09,01,15,09,12.70
2008,09,01,15,10,12.80
2008,09,01,15,11,12.80
2008,09,01,15,12,12.80
2008,09,01,15,13,12.80
2008,09,01,15,14,12.80
2008,09,01,15,15,12.80
2008,09,01,15,16,12.80
2008,09,01,15,17,13.00
2008,09,01,15,18,13.10
2008,09,01,15,19,13.20
2008,09,01,15,20,13.30
2008,09,01,15,21,13.30
2008,09,01,15,22,13.30
2008,09,01,15,23,13.30
2008,09,01,15,24,13.30
2008,09,01,15,25,13.30
2008,09,01,15,26,13.40
2008,09,01,15,27,13.60
2008,09,01,15,28,13.80
2008,09,01,15,29,14.00
2008,09,01,15,30,14.10
2008,09,01,15,31,14.20
2008,09,01,15,32,14.40
2008,09,01,15,33,14.50
2008,09,01,15,34,14.60
2008,09,01,15,35,14.70
2008,09,01,15,36,14.70
2008,09,01,15,37,14.90
2008,09,01,15,38,15.00
2008,09,01,15,39,15.00
2008,09,01,15,40,15.00
2008,09,01,15,41,15.00
2008,09,01,15,42,15.00
2008,09,01,15,43,15.00
2008,09,01,15,44,15.00
2008,09,01,15,45,15.00
2008,09,01,15,46,15.00
2008,09,01,15,47,14.90
2008,09,01,15,48,14.70
2008,09,01,15,49,14.50
2008,09,01,15,50,14.40
2008,09,01,15,51,14.30
2008,09,01,15,52,14.30
2008,09,01,15,53,14.20
2008,09,01,15,54,14.20
2008,09,01,15,55,14.20
2008,09,01,15,56,14.20
2008,09,01,15,57,14.20
2008,09,01,15,58,14.30
2008,09,01,15,59,14.30
2008,09,01,16,00,14.40
2008,09,01,16,01,14.50
2008,09,01,16,02,14.60
2008,09,01,16,03,14.60
2008,09,01,16,04,14.60
2008,09,01,16,05,14.70
2008,09,01,16,06,14.70
2008,09,01,16,07,14.70
2008,09,01,16,08,14.70
2008,09,01,16,09,14.60
2008,09,01,16,10,14.60
2008,09,01,16,11,14.60
2008,09,01,16,12,14.60
2008,09,01,16,13,14.60
2008,09,01,16,14,14.60
2008,09,01,16,15,14.60
2008,09,01,16,16,14.60
2008,09,01,16,17,14.70
2008,09,01,16,18,14.70
2008,09,01,16,19,14.70
2008,09,01,16,20,14.80
2008,09,01,16,21,14.80
2008,09,01,16,22,14.80
2008,09,01,16,23,14.80
2008,09,01,16,24,14.80
2008,09,01,16,25,14.80
2008,09,01,16,26,14.80
2008,09,01,16,27,14.80
2008,09,01,16,28,14.80
2008,09,01,16,29,14.80
2008,09,01,16,30,14.80
2008,09,01,16,31,14.80
2008,09,01,16,32,14.80
2008,09,01,16,33,14.80
2008,09,01,16,34,14.80
2008,09,01,16,35,14.80
2008,09,01,16,36,14.80
2008,09,01,16,37,14.80
2008,09,01,16,38,14.80
2008,09,01,16,39,14.80
2008,09,01,16,40,14.80
2008,09,01,16,41,14.70
2008,09,01,16,42,14.70
2008,09,01,16,43,14.70
2008,09,01,16,44,14.70
2008,09,01,16,45,14.70
2008,09,01,16,46,14.70
2008,09,01,16,47,14.80
2008,09,01,16,48,14.80
2008,09,01,16,49,14.80
2008,09,01,16,50,14.80
2008,09,01,16,51,14.70
2008,09,01,16,52,14.70
2008,09,01,16,53,14.70
2008,09,01,16,54,14.70
2008,09,01,16,55,14.70
2008,09,01,16,56,14.80
2008,09,01,16,57,14.80
2008,09,01,16,58,14.80
2008,09,01,16,59,14.80
2008,09,01,17,00,14.80
2008,09,01,17,01,14.80
2008,09,01,17,02,14.80
2008,09,01,17,03,14.80
2008,09,01,17,04,14.80
2008,09,01,17,05,14.80
2008,09,01,17,06,14.80
2008,09,01,17,07,14.90
2008,09,01,17,08,15.00
2008,09,01,17,09,15.00
2008,09,01,17,10,15.00
2008,09,01,17,11,15.00
2008,09,01,17,12,15.00
2008,09,01,17,13,15.00
2008,09,01,17,14,15.00
2008,09,01,17,15,15.00
2008,09,01,17,16,15.10
2008,09,01,17,17,15.10
2008,09,01,17,18,15.20
2008,09,01,17,19,15.10
2008,09,01,17,20,15.10
2008,09,01,17,21,15.20
2008,09,01,17,22,15.40
2008,09,01,17,23,15.50
2008,09,01,17,24,15.50
2008,09,01,17,25,15.50
2008,09,01,17,26,15.40
2008,09,01,17,27,15.30
2008,09,01,17,28,15.20
2008,09,01,17,29,15.00
2008,09,01,17,30,15.00
2008,09,01,17,31,15.00
2008,09,01,17,32,14.80
2008,09,01,17,33,14.70
2008,09,01,17,34,14.70
2008,09,01,17,35,14.70
2008,09,01,17,36,14.70
2008,09,01,17,37,14.70
2008,09,01,17,38,14.70
2008,09,01,17,39,14.70
2008,09,01,17,40,14.70
2008,09,01,17,41,14.70
2008,09,01,17,42,14.80
2008,09,01,17,43,14.80
2008,09,01,17,44,14.80
2008,09,01,17,45,14.80
2008,09,01,17,46,14.90
2008,09,01,17,47,14.80
2008,09,01,17,48,14.80
2008,09,01,17,49,14.70
2008,09,01,17,50,14.70
2008,09,01,17,51,14.70
2008,09,01,17,52,14.70
2008,09,01,17,53,14.70
2008,09,01,17,54,14.70
2008,09,01,17,55,14.80
2008,09,01,17,56,14.80
2008,09,01,17,57,14.70
2008,09,01,17,58,14.70
2008,09,01,17,59,14.50
2008,09,01,18,00,14.50
2008,09,01,18,01,14.40
2008,09,01,18,02,14.40
2008,09,01,18,03,14.40
2008,09,01,18,04,14.30
2008,09,01,18,05,14.30
2008,09,01,18,06,14.20
2008,09,01,18,07,14.20
2008,09,01,18,08,14.10
2008,09,01,18,09,14.10
2008,09,01,18,10,14.00
2008,09,01,18,11,14.00
2008,09,01,18,12,13.90
2008,09,01,18,13,13.90
2008,09,01,18,14,13.90
2008,09,01,18,15,13.80
2008,09,01,18,16,13.80
2008,09,01,18,17,13.80
2008,09,01,18,18,13.80
2008,09,01,18,19,13.80
2008,09,01,18,20,13.80
2008,09,01,18,21,13.80
2008,09,01,18,22,13.80
2008,09,01,18,23,13.70
2008,09,01,18,24,13.70
2008,09,01,18,25,13.70
2008,09,01,18,26,13.70
2008,09,01,18,27,13.70
2008,09,01,18,28,13.60
2008,09,01,18,29,13.60
2008,09,01,18,30,13.60
2008,09,01,18,31,13.60
2008,09,01,18,32,13.60
2008,09,01,18,33,13.50
2008,09,01,18,34,13.50
2008,09,01,18,35,13.50
2008,09,01,18,36,13.50
2008,09,01,18,37,13.40
2008,09,01,18,38,13.40
2008,09,01,18,39,13.50
2008,09,01,18,40,13.50
2008,09,01,18,41,13.50
2008,09,01,18,42,13.40
2008,09,01,18,43,13.40
2008,09,01,18,44,13.40
2008,09,01,18,45,13.30
2008,09,01,18,46,13.30
2008,09,01,18,47,13.30
2008,09,01,18,48,13.30
2008,09,01,18,49,13.40
2008,09,01,18,50,13.40
2008,09,01,18,51,13.40
2008,09,01,18,52,13.50
2008,09,01,18,53,13.60
2008,09,01,18,54,13.60
2008,09,01,18,55,13.70
2008,09,01,18,56,13.70
2008,09,01,18,57,13.80
2008,09,01,18,58,13.80
2008,09,01,18,59,13.80
2008,09,01,19,00,13.90
2008,09,01,19,01,13.90
2008,09,01,19,02,13.90
2008,09,01,19,03,13.90
2008,09,01,19,04,14.00
2008,09,01,19,05,14.00
2008,09,01,19,06,14.00
2008,09,01,19,07,13.90
2008,09,01,19,08,13.90
2008,09,01,19,09,13.90
2008,09,01,19,10,13.80
2008,09,01,19,11,13.80
2008,09,01,19,12,13.80
2008,09,01,19,13,13.70
2008,09,01,19,14,13.70
2008,09,01,19,15,13.60
2008,09,01,19,16,13.60
2008,09,01,19,17,13.50
2008,09,01,19,18,13.50
2008,09,01,19,19,13.40
2008,09,01,19,20,13.40
2008,09,01,19,21,13.40
2008,09,01,19,22,13.30
2008,09,01,19,23,13.30
2008,09,01,19,24,13.20
2008,09,01,19,25,13.20
2008,09,01,19,26,13.10
2008,09,01,19,27,13.10
2008,09,01,19,28,13.00
2008,09,01,19,29,13.00
2008,09,01,19,30,12.90
2008,09,01,19,31,12.90
2008,09,01,19,32,12.80
2008,09,01,19,33,12.80
2008,09,01,19,34,12.80
2008,09,01,19,35,12.80
2008,09,01,19,36,12.80
2008,09,01,19,37,12.70
2008,09,01,19,38,12.70
2008,09,01,19,39,12.70
2008,09,01,19,40,12.70
2008,09,01,19,41,12.70
2008,09,01,19,42,12.60
2008,09,01,19,43,12.60
2008,09,01,19,44,12.60
2008,09,01,19,45,12.60
2008,09,01,19,46,12.60
2008,09,01,19,47,12.50
2008,09,01,19,48,12.50
2008,09,01,19,49,12.50
2008,09,01,19,50,12.50
2008,09,01,19,51,12.40
2008,09,01,19,52,12.40
2008,09,01,19,53,12.40
2008,09,01,19,54,12.40
2008,09,01,19,55,12.30
2008,09,01,19,56,12.30
2008,09,01,19,57,12.30
2008,09,01,19,58,12.30
2008,09,01,19,59,12.30
2008,09,01,20,00,12.30
2008,09,01,20,01,12.30
2008,09,01,20,02,12.20
2008,09,01,20,03,12.20
2008,09,01,20,04,12.20
2008,09,01,20,05,12.20
2008,09,01,20,06,12.20
2008,09,01,20,07,12.20
2008,09,01,20,08,12.20
2008,09,01,20,09,12.20
2008,09,01,20,10,12.20
2008,09,01,20,11,12.20
2008,09,01,20,12,12.20
2008,09,01,20,13,12.20
2008,09,01,20,14,12.10
2008,09,01,20,15,12.10
2008,09,01,20,16,12.10
2008,09,01,20,17,12.10
2008,09,01,20,18,12.10
2008,09,01,20,19,12.10
2008,09,01,20,20,12.10
2008,09,01,20,21,12.10
2008,09,01,20,22,12.10
2008,09,01,20,23,12.10
2008,09,01,20,24,12.10
2008,09,01,20,25,12.10
2008,09,01,20,26,12.10
2008,09,01,20,27,12.10
2008,09,01,20,28,12.00
2008,09,01,20,29,12.00
2008,09,01,20,30,12.00
2008,09,01,20,31,12.00
2008,09,01,20,32,12.00
2008,09,01,20,33,12.00
2008,09,01,20,34,12.00
2008,09,01,20,35,11.90
2008,09,01,20,36,11.90
2008,09,01,20,37,11.90
2008,09,01,20,38,11.90
2008,09,01,20,39,11.90
2008,09,01,20,40,11.90
2008,09,01,20,41,11.80
2008,09,01,20,42,11.80
2008,09,01,20,43,11.80
2008,09,01,20,44,11.80
2008,09,01,20,45,11.80
2008,09,01,20,46,11.80
2008,09,01,20,47,11.80
2008,09,01,20,48,11.80
2008,09,01,20,49,11.80
2008,09,01,20,50,11.80
2008,09,01,20,51,11.70
2008,09,01,20,52,11.70
2008,09,01,20,53,11.70
2008,09,01,20,54,11.70
2008,09,01,20,55,11.70
2008,09,01,20,56,11.70
2008,09,01,20,57,11.70
2008,09,01,20,58,11.70
2008,09,01,20,59,11.70
2008,09,01,21,00,11.70
2008,09,01,21,01,11.70
2008,09,01,21,02,11.70
2008,09,01,21,03,11.70
2008,09,01,21,04,11.70
2008,09,01,21,05,11.70
2008,09,01,21,06,11.70
2008,09,01,21,07,11.70
2008,09,01,21,08,11.70
2008,09,01,21,09,11.70
2008,09,01,21,10,11.70
2008,09,01,21,11,11.70
2008,09,01,21,12,11.60
2008,09,01,21,13,11.60
2008,09,01,21,14,11.60
2008,09,01,21,15,11.60
2008,09,01,21,16,11.60
2008,09,01,21,17,11.60
2008,09,01,21,18,11.60
2008,09,01,21,19,11.60
2008,09,01,21,20,11.60
2008,09,01,21,21,11.60
2008,09,01,21,22,11.60
2008,09,01,21,23,11.50
2008,09,01,21,24,11.50
2008,09,01,21,25,11.50
2008,09,01,21,26,11.50
2008,09,01,21,27,11.50
2008,09,01,21,28,11.50
2008,09,01,21,29,11.40
2008,09,01,21,30,11.50
2008,09,01,21,31,11.40
2008,09,01,21,32,11.40
2008,09,01,21,33,11.40
2008,09,01,21,34,11.40
2008,09,01,21,35,11.40
2008,09,01,21,36,11.40
2008,09,01,21,37,11.40
2008,09,01,21,38,11.40
2008,09,01,21,39,11.40
2008,09,01,21,40,11.40
2008,09,01,21,41,11.40
2008,09,01,21,42,11.40
2008,09,01,21,43,11.40
2008,09,01,21,44,11.40
2008,09,01,21,45,11.40
2008,09,01,21,46,11.40
2008,09,01,21,47,11.40
2008,09,01,21,48,11.40
2008,09,01,21,49,11.40
2008,09,01,21,50,11.40
2008,09,01,21,51,11.40
2008,09,01,21,52,11.40
2008,09,01,21,53,11.40
2008,09,01,21,54,11.40
2008,09,01,21,55,11.40
2008,09,01,21,56,11.40
2008,09,01,21,57,11.40
2008,09,01,21,58,11.40
2008,09,01,21,59,11.40
2008,09,01,22,00,11.40
2008,09,01,22,01,11.40
2008,09,01,22,02,11.50
2008,09,01,22,03,11.40
2008,09,01,22,04,11.50
2008,09,01,22,05,11.50
2008,09,01,22,06,11.40
2008,09,01,22,07,11.40
2008,09,01,22,08,11.40
2008,09,01,22,09,11.40
2008,09,01,22,10,11.40
2008,09,01,22,11,11.40
2008,09,01,22,12,11.40
2008,09,01,22,13,11.40
2008,09,01,22,14,11.40
2008,09,01,22,15,11.40
2008,09,01,22,16,11.40
2008,09,01,22,17,11.40
2008,09,01,22,18,11.40
2008,09,01,22,19,11.40
2008,09,01,22,20,11.40
2008,09,01,22,21,11.40
2008,09,01,22,22,11.40
2008,09,01,22,23,11.40
2008,09,01,22,24,11.50
2008,09,01,22,25,11.50
2008,09,01,22,26,11.50
2008,09,01,22,27,11.60
2008,09,01,22,28,11.60
2008,09,01,22,29,11.60
2008,09,01,22,30,11.60
2008,09,01,22,31,11.60
2008,09,01,22,32,11.60
2008,09,01,22,33,11.60
2008,09,01,22,34,11.60
2008,09,01,22,35,11.60
2008,09,01,22,36,11.50
2008,09,01,22,37,11.60
2008,09,01,22,38,11.50
2008,09,01,22,39,11.50
2008,09,01,22,40,11.50
2008,09,01,22,41,11.50
2008,09,01,22,42,11.50
2008,09,01,22,43,11.50
2008,09,01,22,44,11.50
2008,09,01,22,45,11.50
2008,09,01,22,46,11.50
2008,09,01,22,47,11.50
2008,09,01,22,48,11.50
2008,09,01,22,49,11.40
2008,09,01,22,50,11.40
2008,09,01,22,51,11.40
2008,09,01,22,52,11.40
2008,09,01,22,53,11.40
2008,09,01,22,54,11.50
2008,09,01,22,55,11.50
2008,09,01,22,56,11.50
2008,09,01,22,57,11.50
2008,09,01,22,58,11.50
2008,09,01,22,59,11.50
2008,09,01,23,00,11.50
2008,09,01,23,01,11.50
2008,09,01,23,02,11.50
2008,09,01,23,03,11.50
2008,09,01,23,04,11.50
2008,09,01,23,05,11.50
2008,09,01,23,06,11.50
2008,09,01,23,07,11.50
2008,09,01,23,08,11.40
2008,09,01,23,09,11.40
2008,09,01,23,10,11.40
2008,09,01,23,11,11.40
2008,09,01,23,12,11.40
2008,09,01,23,13,11.40
2008,09,01,23,14,11.40
2008,09,01,23,15,11.40